Tiempo cada hora Mussoorie

Hoy, 28 Octubre, Miércoles

Tiempo Temperatura Precipitaciones Viento Presión Humedad
00:00 +21°C° 0 mm 4 mps 708 mmHg 29%
01:00 +20°C° 0 mm 4 mps 708 mmHg 31%
02:00 +20°C° 0 mm 4 mps 708 mmHg 31%
03:00 +19°C° 0 mm 4 mps 708 mmHg 32%
04:00 +19°C° 0 mm 4 mps 708 mmHg 33%
05:00 +19°C° 0 mm 4 mps 708 mmHg 33%
06:00 +19°C° 0 mm 4 mps 709 mmHg 33%
07:00 +20°C° 0 mm 4 mps 710 mmHg 32%
08:00 +22°C° 0 mm 3 mps 710 mmHg 29%
09:00 +25°C° 0 mm 3 mps 711 mmHg 26%
10:00 +28°C° 0 mm 2 mps 711 mmHg 23%
11:00 +29°C° 0 mm 2 mps 711 mmHg 20%
12:00 +30°C° 0 mm 1 mps 711 mmHg 18%
13:00 +29°C° 0 mm 0 mps 710 mmHg 16%
14:00 +31°C° 0 mm 1 mps 710 mmHg 15%
15:00 +31°C° 0 mm 1 mps 710 mmHg 15%
16:00 +31°C° 0 mm 2 mps 709 mmHg 14%
17:00 +29°C° 0 mm 2 mps 710 mmHg 17%
18:00 +27°C° 0 mm 3 mps 710 mmHg 20%
19:00 +24°C° 0 mm 3 mps 710 mmHg 23%
20:00 +24°C° 0 mm 3 mps 710 mmHg 24%
21:00 +24°C° 0 mm 3 mps 710 mmHg 24%
22:00 +22°C° 0 mm 3 mps 711 mmHg 25%
23:00 +22°C° 0 mm 3 mps 711 mmHg 27%

Mañana, 29 Octubre, Jueves

Tiempo Temperatura Precipitaciones Viento Presión Humedad
00:00 +21°C° 0 mm 3 mps 710 mmHg 29%
01:00 +20°C° 0 mm 3 mps 710 mmHg 32%
02:00 +19°C° 0 mm 4 mps 710 mmHg 39%
03:00 +19°C° 0 mm 5 mps 710 mmHg 47%
04:00 +19°C° 0 mm 6 mps 710 mmHg 55%
05:00 +17°C° 0 mm 6 mps 710 mmHg 57%
06:00 +17°C° 0 mm 7 mps 711 mmHg 60%
07:00 +16°C° 0 mm 7 mps 711 mmHg 62%
08:00 +20°C° 0 mm 7 mps 712 mmHg 55%
09:00 +22°C° 0 mm 7 mps 713 mmHg 47%
10:00 +24°C° 0 mm 7 mps 713 mmHg 39%
11:00 +26°C° 0 mm 7 mps 713 mmHg 35%
12:00 +28°C° 0 mm 6 mps 712 mmHg 31%
13:00 +29°C° 0 mm 5 mps 712 mmHg 27%
14:00 +29°C° 0 mm 5 mps 712 mmHg 26%
15:00 +29°C° 0 mm 4 mps 711 mmHg 25%
16:00 +29°C° 0 mm 4 mps 711 mmHg 24%
17:00 +27°C° 0 mm 4 mps 711 mmHg 28%
18:00 +25°C° 0 mm 4 mps 712 mmHg 32%
19:00 +22°C° 0 mm 4 mps 712 mmHg 35%
20:00 +21°C° 0 mm 3 mps 712 mmHg 39%
21:00 +21°C° 0 mm 3 mps 712 mmHg 42%
22:00 +20°C° 0 mm 3 mps 712 mmHg 45%
23:00 +19°C° 0 mm 4 mps 712 mmHg 47%

Pasado mañana, 30 Octubre, Viernes

Tiempo Temperatura Precipitaciones Viento Presión Humedad
00:00 +19°C° 0 mm 5 mps 712 mmHg 48%
01:00 +17°C° 0 mm 5 mps 712 mmHg 50%
02:00 +17°C° 0 mm 5 mps 712 mmHg 49%
03:00 +16°C° 0 mm 5 mps 712 mmHg 48%
04:00 +17°C° 0 mm 4 mps 712 mmHg 48%
05:00 +17°C° 0 mm 4 mps 712 mmHg 49%
06:00 +17°C° 0 mm 4 mps 712 mmHg 50%
07:00 +17°C° 0 mm 4 mps 713 mmHg 51%
08:00 +19°C° 0 mm 5 mps 713 mmHg 47%
09:00 +21°C° 0 mm 5 mps 714 mmHg 43%
10:00 +23°C° 0 mm 6 mps 714 mmHg 39%
11:00 +25°C° 0 mm 5 mps 713 mmHg 36%
12:00 +26°C° 0 mm 4 mps 713 mmHg 33%
13:00 +27°C° 0 mm 3 mps 712 mmHg 30%
14:00 +27°C° 0 mm 4 mps 712 mmHg 29%
15:00 +27°C° 0 mm 4 mps 712 mmHg 29%
16:00 +27°C° 0 mm 5 mps 712 mmHg 28%
17:00 +25°C° 0 mm 5 mps 712 mmHg 31%
18:00 +22°C° 0 mm 5 mps 712 mmHg 34%
19:00 +21°C° 0 mm 5 mps 712 mmHg 37%
20:00 +20°C° 0 mm 5 mps 712 mmHg 38%
21:00 +19°C° 0 mm 5 mps 712 mmHg 40%
22:00 +17°C° 0 mm 5 mps 712 mmHg 41%
23:00 +17°C° 0 mm 5 mps 712 mmHg 44%

31 Octubre, Sábado

Tiempo Temperatura Precipitaciones Viento Presión Humedad
00:00 +17°C° 0 mm 4 mps 712 mmHg 47%
01:00 +17°C° 0 mm 4 mps 712 mmHg 51%
02:00 +15°C° 0 mm 4 mps 712 mmHg 56%
03:00 +15°C° 0 mm 4 mps 711 mmHg 61%
04:00 +14°C° 0 mm 3 mps 711 mmHg 67%
05:00 +14°C° 0 mm 3 mps 711 mmHg 67%
06:00 +16°C° 0 mm 3 mps 712 mmHg 67%
07:00 +16°C° 0 mm 3 mps 712 mmHg 68%
08:00 +18°C° 0 mm 4 mps 712 mmHg 60%
09:00 +20°C° 0 mm 4 mps 713 mmHg 53%
10:00 +21°C° 0 mm 4 mps 713 mmHg 46%
11:00 +22°C° 0 mm 4 mps 713 mmHg 41%
12:00 +23°C° 0 mm 4 mps 712 mmHg 37%
13:00 +25°C° 0 mm 3 mps 712 mmHg 32%
14:00 +25°C° 0 mm 4 mps 711 mmHg 31%
15:00 +25°C° 0 mm 4 mps 711 mmHg 30%
16:00 +25°C° 0 mm 5 mps 710 mmHg 30%
17:00 +23°C° 0 mm 4 mps 710 mmHg 33%
18:00 +21°C° 0 mm 4 mps 710 mmHg 36%
19:00 +20°C° 0 mm 4 mps 710 mmHg 39%
20:00 +19°C° 0 mm 4 mps 710 mmHg 39%
21:00 +18°C° 0 mm 4 mps 711 mmHg 39%
22:00 +17°C° 0 mm 4 mps 711 mmHg 40%
23:00 +17°C° 0 mm 4 mps 711 mmHg 42%

1 Noviembre, Domingo

Tiempo Temperatura Precipitaciones Viento Presión Humedad
00:00 +16°C° 0 mm 5 mps 711 mmHg 44%
01:00 +15°C° 0 mm 5 mps 711 mmHg 46%
02:00 +15°C° 0 mm 5 mps 710 mmHg 49%
03:00 +15°C° 0 mm 4 mps 710 mmHg 51%
04:00 +14°C° 0 mm 4 mps 710 mmHg 54%
05:00 +15°C° 0 mm 4 mps 711 mmHg 53%
06:00 +15°C° 0 mm 4 mps 711 mmHg 52%
07:00 +16°C° 0 mm 3 mps 711 mmHg 51%
08:00 +18°C° 0 mm 3 mps 712 mmHg 46%
09:00 +20°C° 0 mm 3 mps 712 mmHg 41%
10:00 +22°C° 0 mm 3 mps 712 mmHg 36%
11:00 +24°C° 0 mm 3 mps 712 mmHg 32%
12:00 +25°C° 0 mm 3 mps 712 mmHg 29%
13:00 +26°C° 0 mm 2 mps 711 mmHg 26%
14:00 +26°C° 0 mm 3 mps 711 mmHg 25%
15:00 +26°C° 0 mm 3 mps 711 mmHg 25%
16:00 +26°C° 0 mm 3 mps 710 mmHg 24%
17:00 +24°C° 0 mm 3 mps 710 mmHg 29%
18:00 +21°C° 0 mm 3 mps 710 mmHg 34%
19:00 +19°C° 0 mm 3 mps 711 mmHg 38%
20:00 +19°C° 0 mm 3 mps 711 mmHg 40%
21:00 +19°C° 0 mm 3 mps 711 mmHg 42%
22:00 +18°C° 0 mm 3 mps 711 mmHg 44%
23:00 +18°C° 0 mm 3 mps 711 mmHg 46%

2 Noviembre, Lunes

Tiempo Temperatura Precipitaciones Viento Presión Humedad
00:00 +17°C° 0 mm 3 mps 711 mmHg 47%
01:00 +16°C° 0 mm 2 mps 711 mmHg 49%
02:00 +16°C° 0 mm 3 mps 711 mmHg 50%
03:00 +16°C° 0 mm 3 mps 711 mmHg 50%
04:00 +16°C° 0 mm 3 mps 711 mmHg 51%
05:00 +16°C° 0 mm 3 mps 711 mmHg 52%
06:00 +16°C° 0 mm 3 mps 712 mmHg 53%
07:00 +16°C° 0 mm 3 mps 712 mmHg 54%
08:00 +19°C° 0 mm 4 mps 712 mmHg 49%
09:00 +21°C° 0 mm 5 mps 713 mmHg 44%
10:00 +23°C° 0 mm 5 mps 713 mmHg 38%
11:00 +25°C° 0 mm 5 mps 713 mmHg 35%
12:00 +26°C° 0 mm 4 mps 713 mmHg 33%
13:00 +27°C° 0 mm 4 mps 712 mmHg 30%
14:00 +27°C° 0 mm 4 mps 712 mmHg 29%
15:00 +27°C° 0 mm 4 mps 711 mmHg 29%
16:00 +27°C° 0 mm 3 mps 711 mmHg 28%
17:00 +25°C° 0 mm 3 mps 711 mmHg 32%
18:00 +22°C° 0 mm 3 mps 711 mmHg 37%
19:00 +20°C° 0 mm 3 mps 711 mmHg 41%
20:00 +20°C° 0 mm 3 mps 712 mmHg 43%
21:00 +19°C° 0 mm 3 mps 712 mmHg 45%
22:00 +19°C° 0 mm 3 mps 712 mmHg 47%
23:00 +18°C° 0 mm 3 mps 712 mmHg 50%
Mostrar más

Necesitamos Su Consentimiento

Meteoprog y nuestros Proveedores de Servicios pueden almacenar y acceder a sus datos personales como cookies, identificadores de dispositivo u otras tecnologías similares de su dispositivo y procesar dichos datos para personalizar contenido y anuncios, además de ofrecer funciones de redes sociales y analizar el tráfico.

  • Almacenar y/o acceder a información en su dispositivo

    Se puede almacenar o acceder a cookies, identificadores de dispositivo u otra información de su dispositivo para los fines anteriormente indicados.

  • Anuncios y contenido personalizados, medición de anuncios y contenido, percepciones del público, y desarrollo de productos

    Los anuncios y el contenido pueden personalizarse en base a su perfil. Se pueden añadir más datos para personalizar mejor los anuncios y contenidos. Se puede medir el rendimiento de los anuncios y contenidos. Se puede obtener la percepción sobre el público que ha visto los anuncios y contenidos. Dichos datos pueden usarse para desarrollar o mejorar la experiencia del usuario, sistemas y software.

Al hacer clic en ‘Estoy De Acuerdo’ usted permitirá el uso de las cookies, identificadores de dispositivo, balizas web u otras tecnologías similares indicadas. Su configuración puede cambiarse desde el navegador de su dispositivo.

Para ciertos fines, los intereses legítimos pueden ser considerados por encima del consentimiento. Puede leer más sobre ello en nuestra Política de Privacidad y Cookies.